Terminal Aerodrome Forecast
Issued by NWS

Home | Current Version | Previous Version | Text Only | Print | Product List | Glossary On
Versions: 1 2 3 4 5 6 7 8 9 10 11 12 13 14 15 16 17 18
000
FTUS43 KJKL 301100
TAFSJS
TAF
KSJS 301133Z 3012/3112 19005KT P6SM SCT090
     FM301600 20006KT P6SM SCT060
     FM302100 20007KT P6SM VCTS BKN050CB
     FM310300 19005KT 6SM SHRA BR VCTS SCT025 BKN040CB=

USA.gov is the U.S. government's official web portal to all federal, state and local government web resources and services.